Flag for Canada Weather past 2 weeks in Resolute Bay, Nunavut Territory, Canada

Now
-22 °F

Snow flurries. Scattered clouds.


Feels Like: -53 °F
Forecast: -31 / -28 °F
Wind: 23 mph from Northeast

Location: Resolute

Current Time: Jan 29, 2015 at 6:33:06 PM

Latest Report: Jan 29, 2015 at 5:00 PM


Visibility: 15 mi

Pressure: 30.12 "Hg

Humidity: 68%

Dew point: -29 °F

Location of Resolute BayLocation

Historic Weather in Resolute Bay — Graph

°F

Resolute Bay temperature yesterday

Maximum temperature yesterday: -22 °F (at 7:00 AM)
Minimum temperature yesterday: -29 °F (at 12:00 AM)
Average temperature yesterday: -24 °F

Past Weeks' High & Low Weather Summary

 TemperatureHumidityPressure
High-18 °F (Jan 16, 3:00 AM)75% (Jan 15, 6:00 PM)30.14 "Hg (Jan 15, 6:00 PM)
Low-36 °F (Jan 22, 3:00 PM)37% (Jan 22, 4:00 PM)29.46 "Hg (Jan 27, 1:00 AM)
Average-29 °F70%29.82 "Hg
* Reported Jan 14 5:00 PM — Jan 29 5:00 PM, Resolute Bay, Weather by CustomWeather, © 2014

Note: Actual official high and low records may vary slightly from our data, if they occured in-between our weather recording intervals... More about our weather records

Advertising

Resolute Bay weather history for previous 24 hours

 ConditionsComfort  
Time TempWeatherWind HumidityBarometerVisibility
5:00 PM
Jan 29
-22 °FSnow flurries. Scattered clouds.23 mph68%30.12 "Hg15 mi
4:00 PM-22 °FSnow flurries. Broken clouds.23 mph68%30.12 "Hg15 mi
3:00 PM-24 °FSnow flurries. Partly sunny.26 mph75%30.11 "Hg8 mi
2:00 PM-24 °FSnow flurries. Partly sunny.22 mph68%30.11 "Hg8 mi
1:00 PM-22 °FSnow flurries. Scattered clouds.21 mph68%30.10 "Hg5 mi
12:00 PM-24 °FSnow flurries. Scattered clouds.17 mph75%30.11 "Hg4 mi
11:00 AM-22 °FSnow flurries. Partly sunny.17 mph75%30.10 "Hg4 mi
10:00 AM-20 °FSnow flurries. Partly sunny.17 mph75%30.10 "Hg2 mi
9:00 AM-20 °FSnow flurries. Broken clouds.20 mph75%30.09 "Hg2 mi
8:00 AM-20 °FSnow flurries. Partly sunny.22 mph75%30.08 "Hg1 mi
7:00 AM-20 °FSnow flurries. Low level haze.21 mph75%30.08 "Hg1 mi
6:00 AM-20 °FSnow flurries. Low level haze.21 mph75%30.09 "Hg1 mi
5:00 AM-20 °FSnow flurries. Low level haze.21 mph68%30.08 "Hg1 mi
4:00 AM-22 °FSnow flurries. Passing clouds.22 mph75%30.07 "Hg1 mi
3:48 AM-22 °FSnow flurries. Passing clouds.21 mph75%30.07 "Hg1 mi
3:00 AM-22 °FPassing clouds.17 mph75%30.07 "Hg10 mi
2:00 AM-22 °FLow level haze.17 mph75%30.07 "Hg4 mi
1:00 AM-22 °FLight snow. Passing clouds.24 mph75%30.05 "Hg1 mi
12:52 AM-22 °FLight snow. Partly sunny.26 mph75%30.05 "Hg1 mi
12:00 AM-22 °FLight snow. Partly sunny.24 mph75%30.03 "Hg4 mi
11:00 PM
Jan 28
-22 °FLight snow. Passing clouds.23 mph75%30.03 "Hg6 mi
10:00 PM-22 °FLight snow. Passing clouds.21 mph68%30.04 "Hg15 mi
9:00 PM-24 °FLight snow. Passing clouds.22 mph75%30.03 "Hg15 mi
8:00 PM-24 °FLight snow. Passing clouds.24 mph75%30.02 "Hg15 mi
7:00 PM-24 °FLight snow. Low level haze.20 mph75%30.01 "Hg10 mi
6:00 PM-24 °FLight snow. Scattered clouds.22 mph75%30.01 "Hg6 mi
Weather by CustomWeather, © 2014

See weather overviewHow to use our weather pages